Temp
75 78 75 74 75 74 74 73 73 74 74 74 74 74 73 74 73 73 73 73 73 72 74 73 74 74 73 73 73 72 72 73 73 73 73 74 74 75 76 74 75 77 75
78 79 75 74 74 74 74 73 74 72 74 73 74 74 73 73 73 73 73 73 72 73 73 73 74 74 72 72 72 72 71 71 71 72 74 74 74 74 74 75 74 75 74
78 79 79 74 74 74 73 73 72 72 73 73 72 73 72 72 72 72 72 73 73 72 73 73 72 72 72 71 71 71 71 70 70 71 73 75 75 74 74 74 73 74 75
79 80 79 74 74 73 72 72 72 72 72 72 72 72 72 72 72 72 72 72 72 72 72 72 72 72 71 70 70 70 70 69 70 71 76 75 75 73 74 73 74 73 74
78 79 78 73 73 72 72 72 71 71 70 71 72 72 72 72 71 72 72 72 71 71 72 72 71 71 70 69 69 68 68 68 70 73 74 73 73 73 72 72 72 72 72
78 79 75 73 73 72 71 71 70 70 70 70 71 71 71 71 71 71 71 70 71 71 71 71 71 70 70 68 68 68 67 67 70 74 73 74 71 71 71 71 71 71 72
77 79 78 73 72 72 71 70 70 69 69 69 70 70 69 69 69 70 70 70 70 70 70 70 70 70 69 68 68 67 66 66 72 72 73 73 69 70 70 70 70 70 71
77 77 77 73 72 72 71 70 69 68 68 68 69 68 68 68 68 68 68 69 70 70 70 69 69 69 68 68 67 66 65 66 72 71 72 71 70 70 70 70 70 70 70
78 76 77 77 75 71 71 70 69 68 67 67 68 67 67 67 66 67 66 68 69 69 69 68 68 68 67 66 66 65 64 65 72 72 73 73 69 70 70 70 69 70 70
76 76 76 76 76 75 75 69 68 67 67 67 67 66 65 64 64 64 65 67 67 67 67 67 66 66 67 66 65 64 63 65 71 71 72 71 69 69 69 68 69 69 68
73 74 76 75 75 75 75 73 69 67 67 66 66 64 66 74 71 68 63 65 65 65 65 65 65 64 63 64 63 62 64 70 71 71 72 67 68 68 68 68 68 68 68
71 72 74 75 74 74 74 73 72 72 73 72 72 71 73 73 72 68 65 61 62 62 62 62 62 61 64 72 71 64 71 70 70 70 70 65 66 68 68 67 67 68 68
73 73 73 72 73 73 73 73 73 73 72 72 70 70 70 71 72 73 72 72 70 64 71 69 69 72 68 70 71 72 70 71 71 71 66 64 65 66 68 68 67 67 67
73 72 73 73 72 72 74 73 73 72 71 71 70 68 69 70 70 71 71 70 69 71 69 69 70 70 70 69 70 70 70 70 72 71 68 62 64 65 66 67 67 67 67
74 72 72 72 72 72 72 72 72 72 71 72 70 69 68 68 68 70 69 69 69 69 69 68 68 68 69 70 70 69 70 70 69 70 70 60 61 63 64 65 66 66 66
74 74 74 73 71 72 71 71 71 72 72 71 70 70 69 69 69 69 69 68 68 69 69 68 67 67 68 69 69 69 69 69 69 68 69 68 60 61 62 64 65 65 65
76 76 74 73 73 70 70 71 70 70 70 70 70 70 70 69 69 69 68 68 68 69 65 66 67 67 66 68 68 69 69 69 69 69 68 68 67 60 60 62 62 64 64
78 75 75 72 72 71 70 71 70 71 70 70 71 71 70 69 68 68 67 68 68 66 66 66 66 65 65 66 67 68 68 69 69 69 68 68 67 68 63 61 61 62 63
77 76 74 74 72 72 72 72 71 70 70 70 71 70 69 68 68 67 68 68 68 66 65 65 65 64 64 65 66 67 68 68 68 69 68 66 66 65 67 64 60 60 61
76 76 75 74 73 73 72 71 70 70 69 70 70 69 70 69 68 67 67 67 67 65 64 64 63 65 63 63 64 65 67 68 67 66 67 67 66 64 65 65 65 65 60
74 72 73 73 73 72 70 68 68 68 69 69 69 69 69 69 68 66 66 67 66 64 65 65 64 61 62 63 60 65 68 69 67 66 66 66 66 65 65 64 64 65 66
75 74 72 72 72 72 71 71 72 72 72 72 71 70 69 68 68 67 66 66 66 64 63 63 62 61 61 63 60 60 59 65 65 66 66 65 65 66 65 65 65 65 65
75 76 74 73 73 72 70 70 67 67 65 64 66 66 68 68 68 66 66 67 66 65 63 63 62 59 59 63 61 60 56 57 61 65 63 63 63 63 63 64 64 65 65
76 76 75 74 73 73 71 69 66 66 66 70 70 71 69 69 68 67 66 67 67 66 64 64 64 61 60 59 62 61 63 62 57 56 63 63 63 62 62 63 63 64 65
78 75 74 73 72 72 70 68 68 66 69 71 70 67 67 68 68 68 67 67 67 66 66 65 64 63 62 60 61 61 59 59 60 56 53 61 64 62 63 62 64 64 64
75 72 71 72 71 71 68 66 65 65 67 67 67 66 67 68 68 66 66 66 67 66 65 65 65 63 62 61 61 62 59 57 57 55 54 57 58 61 63 63 62 62 62
MSLP
1024.21 1024.49 1025.01 1025.29 1025.31 1025.41 1025.47 1025.66 1025.64 1025.56 1025.55 1025.39 1025.17 1025.05 1025.04 1024.83 1024.74 1024.54 1024.44 1024.28 1024.10 1023.99 1023.52 1023.47 1023.12 1023.06 1022.94 1022.76 1022.54 1022.39 1022.23 1021.92 1021.67 1021.43 1021.17 1020.73 1020.44 1019.91 1019.78 1019.73 1019.25 1019.00 1019.05
1024.07 1024.47 1025.09 1025.37 1025.55 1025.66 1025.72 1025.74 1025.70 1025.90 1025.64 1025.57 1025.46 1025.42 1025.34 1025.13 1025.10 1024.85 1024.71 1024.42 1024.40 1024.11 1023.96 1023.86 1023.56 1023.42 1023.35 1023.22 1022.97 1022.80 1022.77 1022.55 1022.37 1021.95 1021.42 1020.89 1020.82 1020.60 1020.34 1020.06 1019.92 1019.78 1019.63
1024.21 1024.53 1024.93 1025.44 1025.71 1025.89 1025.91 1025.90 1026.09 1026.11 1026.07 1025.92 1025.83 1025.69 1025.66 1025.61 1025.47 1025.31 1025.11 1024.83 1024.70 1024.59 1024.33 1024.24 1024.11 1023.90 1023.81 1023.87 1023.57 1023.38 1023.21 1023.07 1022.83 1022.44 1021.80 1021.39 1021.12 1021.11 1020.94 1020.79 1020.65 1020.36 1020.04
1024.28 1024.53 1024.84 1025.58 1025.84 1026.15 1026.25 1026.34 1026.43 1026.38 1026.37 1026.26 1026.12 1026.09 1025.98 1025.87 1025.79 1025.56 1025.40 1025.29 1025.23 1024.92 1024.78 1024.70 1024.58 1024.28 1024.28 1024.37 1024.13 1023.92 1023.79 1023.58 1023.21 1022.68 1022.07 1021.95 1021.58 1021.66 1021.42 1021.35 1020.99 1020.87 1020.61
1024.49 1024.76 1025.20 1025.84 1026.10 1026.39 1026.45 1026.61 1026.77 1026.72 1026.76 1026.56 1026.36 1026.34 1026.25 1026.09 1026.04 1025.92 1025.78 1025.70 1025.60 1025.48 1025.13 1024.94 1024.80 1024.64 1024.76 1024.75 1024.65 1024.52 1024.23 1024.11 1023.57 1022.87 1022.72 1022.60 1022.19 1022.27 1022.10 1022.02 1021.65 1021.41 1021.16
1024.63 1024.90 1025.59 1026.02 1026.19 1026.55 1026.69 1026.87 1027.02 1027.12 1027.11 1026.87 1026.77 1026.61 1026.58 1026.54 1026.36 1026.24 1026.20 1026.13 1025.89 1025.80 1025.57 1025.31 1025.11 1025.05 1025.10 1025.22 1025.04 1024.93 1024.85 1024.33 1023.69 1023.38 1023.23 1022.94 1022.96 1022.95 1022.71 1022.41 1022.18 1021.91 1021.49
1024.73 1025.04 1025.45 1026.06 1026.37 1026.54 1026.81 1027.00 1027.15 1027.31 1027.33 1027.18 1027.06 1027.02 1027.04 1027.03 1026.94 1026.78 1026.73 1026.54 1026.29 1026.06 1025.91 1025.68 1025.46 1025.50 1025.57 1025.51 1025.32 1025.30 1025.14 1024.79 1024.01 1023.77 1023.42 1023.32 1023.50 1023.17 1023.00 1022.80 1022.62 1022.23 1021.93
1024.89 1025.25 1025.47 1026.11 1026.35 1026.56 1026.79 1027.08 1027.31 1027.45 1027.52 1027.47 1027.33 1027.33 1027.37 1027.38 1027.37 1027.25 1027.13 1026.86 1026.56 1026.34 1026.21 1026.09 1025.92 1025.84 1025.93 1025.78 1025.67 1025.65 1025.44 1025.11 1024.33 1024.05 1023.91 1024.09 1023.83 1023.48 1023.28 1023.12 1022.83 1022.71 1022.37
1024.93 1025.36 1025.56 1025.77 1026.16 1026.63 1026.89 1027.26 1027.39 1027.57 1027.71 1027.71 1027.62 1027.62 1027.67 1027.71 1027.74 1027.60 1027.49 1027.02 1026.82 1026.66 1026.56 1026.51 1026.50 1026.31 1026.22 1026.14 1026.11 1026.01 1025.87 1025.54 1024.50 1024.34 1024.09 1024.05 1024.10 1023.77 1023.60 1023.50 1023.33 1023.03 1022.76
1025.17 1025.37 1025.56 1025.78 1026.02 1026.24 1026.44 1027.21 1027.42 1027.66 1027.75 1027.76 1027.75 1027.89 1028.05 1028.13 1028.03 1027.93 1027.63 1027.36 1027.22 1027.07 1026.89 1026.81 1026.78 1026.74 1026.48 1026.50 1026.52 1026.47 1026.27 1025.65 1024.98 1024.72 1024.40 1024.38 1024.31 1024.12 1023.99 1023.91 1023.62 1023.37 1023.19
1025.23 1025.34 1025.54 1025.78 1025.99 1026.25 1026.46 1026.84 1027.38 1027.64 1027.76 1027.78 1027.94 1028.11 1027.99 1027.53 1027.56 1027.55 1027.93 1027.76 1027.66 1027.55 1027.33 1027.14 1027.10 1027.04 1027.03 1026.85 1026.80 1026.68 1026.17 1025.54 1025.17 1025.02 1024.73 1025.07 1024.55 1024.30 1024.20 1024.10 1023.95 1023.75 1023.53
1024.78 1025.22 1025.51 1025.74 1025.98 1026.30 1026.54 1026.74 1027.02 1027.21 1027.26 1027.41 1027.55 1027.58 1027.46 1027.36 1027.39 1027.65 1027.83 1028.00 1027.85 1027.72 1027.67 1027.54 1027.39 1027.27 1026.89 1026.32 1026.22 1026.52 1025.91 1025.85 1025.57 1025.40 1025.25 1025.43 1025.01 1024.58 1024.39 1024.34 1024.20 1023.98 1023.78
1024.31 1024.82 1025.36 1025.74 1025.99 1026.23 1026.35 1026.62 1026.81 1027.05 1027.14 1027.27 1027.46 1027.51 1027.50 1027.40 1027.17 1027.20 1027.20 1027.16 1027.19 1027.54 1026.92 1026.88 1026.72 1026.47 1026.35 1026.25 1026.15 1026.02 1026.04 1025.85 1025.62 1025.53 1025.69 1025.66 1025.34 1025.02 1024.57 1024.41 1024.25 1024.05 1023.82
1023.84 1024.49 1024.95 1025.46 1025.81 1026.12 1026.27 1026.47 1026.50 1026.73 1026.96 1027.01 1027.22 1027.43 1027.36 1027.15 1026.99 1027.01 1026.96 1027.07 1027.12 1026.94 1026.79 1026.75 1026.53 1026.55 1026.27 1026.14 1025.93 1025.77 1025.74 1025.67 1025.56 1025.60 1025.75 1026.11 1025.70 1025.38 1025.02 1024.57 1024.32 1024.16 1023.96
1023.27 1024.02 1024.56 1025.18 1025.50 1025.83 1026.12 1026.22 1026.32 1026.39 1026.59 1026.65 1026.98 1027.14 1027.21 1027.02 1026.94 1026.90 1026.86 1026.93 1026.92 1026.94 1026.83 1026.62 1026.54 1026.44 1026.17 1025.97 1025.81 1025.71 1025.45 1025.41 1025.47 1025.47 1025.51 1026.08 1025.98 1025.65 1025.26 1024.87 1024.54 1024.41 1024.15
1022.89 1023.40 1024.00 1024.59 1025.24 1025.52 1025.76 1025.99 1026.13 1026.22 1026.32 1026.50 1026.55 1026.65 1026.80 1026.76 1026.67 1026.67 1026.63 1026.73 1026.75 1026.78 1026.70 1026.65 1026.52 1026.37 1026.13 1025.95 1025.63 1025.46 1025.36 1025.19 1025.13 1025.14 1025.09 1025.16 1025.69 1025.58 1025.35 1025.03 1024.75 1024.57 1024.34
1022.28 1022.95 1023.50 1024.05 1024.67 1025.30 1025.53 1025.66 1025.96 1026.03 1026.20 1026.17 1026.17 1026.30 1026.39 1026.48 1026.46 1026.43 1026.41 1026.46 1026.50 1026.57 1026.83 1026.71 1026.44 1026.38 1026.07 1025.68 1025.36 1025.02 1024.97 1024.79 1024.67 1024.59 1024.67 1024.62 1024.66 1025.20 1025.25 1025.15 1024.92 1024.56 1024.34
1021.76 1022.38 1023.02 1023.74 1024.19 1024.65 1024.97 1025.16 1025.42 1025.51 1025.78 1025.75 1025.72 1025.89 1026.08 1026.27 1026.33 1026.29 1026.26 1026.18 1026.32 1026.57 1026.62 1026.38 1026.16 1026.00 1025.66 1025.34 1024.87 1024.46 1024.44 1024.33 1024.25 1024.18 1024.14 1024.18 1024.24 1024.18 1024.53 1024.77 1024.79 1024.60 1024.36
1021.40 1021.83 1022.47 1023.07 1023.48 1023.82 1024.29 1024.66 1024.86 1025.10 1025.22 1025.25 1025.35 1025.42 1025.62 1025.76 1025.87 1025.90 1025.78 1025.77 1025.94 1026.18 1026.19 1026.09 1025.90 1025.82 1025.40 1025.00 1024.69 1024.35 1023.98 1023.68 1023.65 1023.58 1023.64 1023.83 1023.85 1023.90 1023.71 1023.81 1024.22 1024.20 1024.07
1020.94 1021.45 1021.92 1022.44 1022.83 1023.27 1023.82 1024.25 1024.51 1024.66 1024.74 1024.79 1024.79 1024.94 1025.09 1025.20 1025.38 1025.48 1025.42 1025.43 1025.58 1025.69 1025.59 1025.63 1025.59 1025.28 1025.22 1024.80 1024.50 1024.02 1023.45 1023.03 1023.08 1023.07 1022.95 1023.00 1023.15 1023.57 1023.64 1023.50 1023.34 1023.19 1023.54
1020.47 1021.02 1021.36 1021.72 1022.17 1022.77 1023.31 1023.62 1023.84 1023.75 1023.95 1024.11 1024.22 1024.35 1024.44 1024.52 1024.73 1024.89 1024.88 1024.89 1025.00 1025.08 1024.92 1024.91 1024.86 1024.86 1024.69 1024.55 1024.38 1023.22 1022.47 1022.20 1022.25 1022.39 1022.54 1022.43 1022.45 1022.70 1022.83 1023.02 1023.11 1022.88 1022.64
1019.45 1020.09 1020.70 1021.14 1021.70 1022.19 1022.61 1022.92 1022.99 1022.99 1023.01 1022.95 1023.18 1023.36 1023.53 1023.75 1023.91 1024.09 1024.12 1024.16 1024.24 1024.42 1024.51 1024.39 1024.50 1024.31 1024.25 1024.27 1023.83 1023.29 1021.99 1021.41 1021.66 1021.66 1021.83 1021.91 1021.91 1022.08 1022.27 1022.33 1022.33 1022.30 1022.31
1018.62 1019.04 1019.77 1020.42 1020.99 1021.52 1022.04 1022.46 1022.95 1023.09 1023.29 1023.02 1022.75 1022.66 1022.61 1022.90 1023.10 1023.27 1023.29 1023.32 1023.48 1023.70 1023.61 1023.55 1023.62 1023.88 1023.65 1023.54 1023.78 1023.17 1022.30 1021.40 1021.39 1021.20 1021.67 1021.81 1021.85 1021.77 1021.86 1021.84 1021.85 1021.82 1021.74
1017.82 1018.58 1019.29 1019.80 1020.33 1020.79 1021.33 1021.77 1022.02 1021.94 1021.69 1021.40 1021.56 1021.54 1021.79 1022.08 1022.21 1022.35 1022.48 1022.58 1022.63 1022.63 1022.61 1022.63 1022.88 1023.13 1023.43 1022.95 1022.95 1023.17 1022.71 1022.30 1021.84 1020.95 1021.02 1021.15 1021.45 1021.52 1021.48 1021.50 1021.39 1021.27 1021.24
1017.35 1018.01 1018.73 1019.26 1019.70 1020.13 1020.64 1021.06 1021.16 1021.06 1020.85 1020.86 1020.91 1021.02 1021.16 1021.19 1021.34 1021.32 1021.45 1021.52 1021.53 1021.53 1021.46 1021.71 1022.01 1022.30 1022.43 1022.45 1022.17 1022.23 1022.51 1022.37 1022.23 1021.94 1020.84 1020.23 1020.45 1020.93 1020.88 1020.75 1020.54 1020.47 1020.44
1017.13 1017.71 1018.18 1018.50 1018.90 1019.45 1019.94 1020.30 1020.43 1020.32 1020.37 1020.32 1020.28 1020.40 1020.43 1020.36 1020.25 1020.30 1020.48 1020.55 1020.46 1020.43 1020.68 1020.93 1021.15 1021.38 1021.51 1021.64 1021.72 1021.59 1021.51 1021.32 1021.16 1021.26 1020.73 1020.13 1019.78 1019.79 1019.91 1019.99 1019.97 1019.71 1019.47
Wind_Speed
8 8 8 7 10 9 8 8 5 10 8 10 11 11 11 12 13 13 15 13 16 14 15 16 16 16 16 14 16 16 16 16 17 16 16 15 18 18 17 20 20 18 19
11 7 8 5 8 9 6 7 9 7 8 9 10 10 11 12 12 14 14 13 14 15 15 15 16 15 16 16 15 16 15 16 15 16 14 11 16 18 19 18 19 16 19
10 8 10 6 6 8 5 8 8 6 7 9 10 11 12 13 12 13 12 13 14 14 15 15 15 15 16 16 15 15 15 16 15 14 13 12 13 18 18 17 19 16 17
9 7 7 9 7 8 4 7 8 6 7 8 10 10 11 11 12 11 13 13 13 14 14 14 13 15 16 15 15 14 14 14 14 11 9 10 12 17 18 16 16 17 15
8 7 8 9 6 8 7 7 7 7 6 6 8 10 11 9 10 10 12 11 11 12 11 12 13 14 15 14 14 13 13 13 11 10 11 12 10 14 15 15 15 14 15
8 7 9 7 7 6 8 7 6 7 6 6 8 8 9 10 9 11 11 10 10 10 10 12 12 12 13 13 13 13 11 12 8 9 9 9 11 13 13 13 14 12 12
8 6 7 6 6 4 6 6 6 6 6 5 8 7 9 9 9 9 9 9 9 10 10 10 11 11 11 12 13 12 11 9 7 8 8 11 8 10 11 11 11 14 14
8 6 6 7 6 4 6 4 5 5 5 4 6 6 7 8 7 7 8 8 7 8 9 10 10 10 10 11 12 12 11 8 6 8 9 7 11 14 12 13 11 14 14
7 7 6 5 7 5 5 4 4 4 4 3 3 3 6 7 7 6 7 7 8 8 7 9 8 9 9 10 11 11 9 8 6 6 7 5 12 11 13 11 12 13 12
8 7 6 6 6 5 7 6 4 3 2 2 2 3 6 2 3 4 3 8 7 8 8 8 8 8 9 8 9 9 6 2 6 5 5 7 9 11 10 11 10 10 12
8 8 7 7 7 5 5 6 5 4 1 2 4 3 5 2 1 2 5 6 7 7 7 6 6 5 4 5 6 6 6 4 5 5 5 10 10 9 8 9 10 10 12
12 11 8 8 7 6 5 5 4 3 3 3 3 3 3 2 2 5 1 2 2 4 3 3 3 1 5 2 2 4 3 4 4 4 5 9 10 8 7 7 7 8 8
12 9 10 9 8 8 6 4 3 3 3 3 5 4 3 3 3 2 2 1 1 0 1 2 2 1 3 3 2 2 3 3 3 3 6 8 8 9 9 6 6 6 7
13 12 11 11 9 9 5 5 5 4 4 4 4 5 4 3 3 3 2 2 2 2 3 3 2 3 3 3 3 3 4 3 2 2 3 6 7 8 8 8 7 7 7
13 13 13 12 10 9 9 6 5 5 5 4 4 5 4 4 4 3 3 3 3 3 3 3 4 4 4 5 4 5 5 5 4 3 3 2 5 6 7 7 7 7 8
13 13 13 13 12 10 9 9 6 6 5 5 5 5 7 5 5 4 4 4 4 3 3 4 4 4 5 5 6 6 6 5 6 6 4 4 6 5 5 6 6 6 8
13 13 13 13 12 12 11 9 7 7 6 6 6 7 8 7 6 6 5 4 4 4 5 5 5 5 5 5 7 6 6 7 7 7 7 5 6 9 7 7 7 7 7
12 13 13 11 12 13 11 9 8 7 7 7 7 6 9 9 8 7 5 5 4 4 4 5 5 5 5 5 6 6 6 7 9 9 8 7 7 6 9 9 8 9 9
13 13 13 14 14 13 12 9 9 9 8 8 7 7 9 10 10 8 7 6 6 5 5 5 5 6 6 6 7 7 8 8 9 8 10 10 10 8 6 8 9 9 9
12 12 12 12 14 12 9 8 7 8 8 8 8 8 11 9 11 9 8 8 7 6 7 6 7 6 7 7 7 9 9 8 7 8 9 9 10 10 9 8 7 7 9
13 13 14 14 14 10 9 8 8 9 8 9 9 13 12 11 11 11 9 9 9 9 9 8 8 8 7 6 6 7 8 9 9 8 7 8 10 10 10 9 7 6 6
14 15 15 15 13 12 9 8 7 5 7 8 8 11 13 13 13 11 12 10 11 8 10 10 10 8 7 6 5 4 5 4 6 6 6 7 10 8 9 11 11 10 8
14 15 15 15 14 14 13 9 6 5 6 7 9 9 11 13 13 14 14 12 11 10 9 11 11 12 9 6 10 6 4 5 4 5 7 6 8 7 8 9 11 11 11
14 12 13 13 14 13 14 11 14 10 10 8 8 8 8 11 13 14 14 14 13 10 13 12 11 11 11 10 6 9 11 8 5 5 4 6 7 8 9 8 9 11 12
10 11 11 12 13 13 13 14 11 13 10 8 8 10 10 10 12 13 14 14 14 12 14 14 13 13 11 11 10 7 8 8 10 9 9 7 6 8 8 8 9 9 11
8 9 9 12 13 13 13 14 16 15 12 10 10 9 8 8 9 13 14 14 14 14 14 13 14 15 13 13 11 10 10 7 8 9 11 12 11 9 8 9 11 10 10
Wind_Direction
146 127 118 110 99 86 70 83 74 55 61 48 46 51 38 48 42 46 52 36 43 37 42 38 42 51 47 40 46 42 40 39 42 38 40 29 29 44 54 43 35 42 42
137 138 128 114 101 94 86 63 67 59 54 51 58 54 45 49 48 45 51 43 42 40 41 42 44 49 48 41 42 50 39 40 36 33 28 38 49 50 48 43 38 38 35
138 137 128 136 112 102 70 79 75 58 67 48 58 56 51 49 47 48 48 51 45 46 44 43 37 46 53 44 38 41 45 41 36 30 24 40 44 39 41 41 38 39 34
139 142 129 114 118 104 86 84 87 55 72 45 61 59 60 55 54 46 48 49 44 40 45 44 41 53 46 41 37 38 40 35 34 27 41 38 39 35 38 29 34 34 33
144 140 116 122 126 116 94 95 92 73 77 40 62 66 64 61 65 51 52 47 52 40 35 52 48 47 53 43 39 35 34 30 35 36 34 21 32 31 38 32 39 30 30
146 155 126 141 131 129 100 94 92 79 75 34 66 55 65 54 57 53 52 48 38 59 33 38 51 46 54 44 42 39 36 31 30 37 35 25 45 37 28 23 31 32 24
156 155 149 150 131 144 105 98 92 85 76 49 77 52 58 47 52 50 52 43 40 44 41 41 48 52 49 47 41 39 42 40 34 43 39 39 38 39 37 47 35 28 40
154 159 152 155 152 149 118 105 91 80 76 68 69 69 67 60 50 54 43 30 39 46 50 42 38 51 48 46 40 40 46 22 61 52 54 28 35 36 32 35 42 30 34
158 172 171 175 161 168 130 117 112 90 73 82 86 88 67 45 36 53 27 34 30 35 39 40 40 33 52 46 41 41 47 26 48 48 52 36 30 35 39 34 37 34 32
173 187 186 185 177 176 161 145 141 116 102 119 124 84 66 71 33 54 317 29 37 24 25 40 38 36 39 46 42 39 31 12 55 39 27 36 23 33 27 31 26 27 31
189 198 195 198 197 193 192 134 176 169 174 146 147 102 220 291 346 247 46 13 13 25 25 32 42 48 36 57 44 26 321 28 18 23 19 5 11 34 30 24 21 12 22
195 198 201 204 201 202 204 205 206 184 231 227 244 294 304 320 13 328 358 21 19 28 29 27 32 328 251 351 105 211 27 23 20 15 41 11 357 14 21 25 22 9 7
198 200 201 199 206 206 210 207 212 220 229 232 242 260 281 277 260 271 288 220 297 86 298 240 211 311 343 340 332 336 345 337 4 11 47 359 2 357 1 12 8 9 12
196 203 203 205 201 211 215 210 217 220 220 234 236 245 257 261 269 275 275 302 289 311 308 311 315 324 284 279 305 301 278 300 308 327 78 348 348 351 344 348 357 360 353
205 205 206 203 212 209 213 217 220 227 225 239 232 229 245 249 264 268 264 269 279 291 297 308 309 313 303 312 293 284 276 261 259 263 277 163 314 330 336 333 343 349 333
210 208 206 208 208 212 218 218 227 230 233 238 239 240 232 246 254 253 262 260 262 267 282 291 312 304 299 294 296 282 280 270 256 247 245 206 222 269 293 312 320 332 330
210 209 209 209 210 214 220 225 224 231 236 238 240 236 239 240 252 250 260 256 262 260 266 269 273 280 280 278 274 275 271 263 252 246 237 238 204 213 247 272 289 301 307
210 207 206 206 213 213 221 221 227 228 230 237 240 240 238 238 241 250 253 254 250 251 259 267 272 276 271 275 276 271 261 259 256 250 240 232 228 241 201 230 266 286 291
210 207 208 206 214 215 219 226 230 236 235 238 242 240 239 237 237 239 245 248 242 242 242 253 258 258 275 273 275 278 272 263 258 251 245 237 232 233 232 202 239 262 269
210 213 212 209 215 215 218 226 231 236 237 239 238 240 238 236 235 238 243 245 242 238 241 237 250 251 264 278 283 279 270 260 252 246 242 235 230 231 238 244 233 227 235
210 210 211 212 211 207 210 218 231 235 233 236 233 238 234 235 231 231 239 243 234 238 242 241 245 251 251 251 280 272 265 252 250 237 232 232 226 224 228 232 240 248 240
207 210 212 214 212 208 214 217 233 236 240 245 237 236 232 231 230 229 232 237 236 236 238 238 234 244 247 244 262 285 280 223 222 224 221 232 233 225 230 236 239 243 249
210 207 212 212 211 209 212 215 226 241 248 242 237 239 234 229 230 228 231 233 236 234 239 233 230 228 244 225 235 254 268 259 328 185 233 232 233 231 235 241 244 246 249
210 208 210 211 211 212 206 214 219 229 243 240 244 239 236 229 229 228 231 232 235 231 234 236 230 229 228 244 220 241 255 275 283 296 199 235 231 240 238 239 244 245 250
199 203 207 209 210 209 207 214 221 233 246 251 252 249 245 241 235 235 231 232 233 232 235 235 230 227 231 236 241 236 236 247 250 259 277 255 217 240 249 242 239 242 250
185 197 202 207 212 208 209 213 224 235 240 248 244 250 250 247 239 234 236 235 238 235 235 235 235 234 231 232 239 236 233 227 227 235 247 262 266 266 263 246 251 249 242